Time,TemperatureF,DewpointF,PressureIn,WindDirection,WindDirectionDegrees,WindSpeedMPH,WindSpeedGustMPH,Humidity,HourlyPrecipIn,Conditions,Clouds,dailyrainin,SoftwareType,DateUTC
2013-06-16 00:00:00,72.9,64.5,31.44,South,177,0.0,1.0,75,0.00,,---,0.00,VWS V14.00,2013-06-16 04:00:00,
2013-06-16 00:01:00,73.0,64.6,31.44,South,177,0.0,1.0,75,0.00,,---,0.00,VWS V14.00,2013-06-16 04:01:00,
2013-06-16 00:02:00,73.0,64.6,31.44,South,177,0.0,1.0,75,0.00,,---,0.00,VWS V14.00,2013-06-16 04:02:00,
2013-06-16 00:07:00,73.2,64.8,31.44,South,176,0.0,0.0,75,0.00,,---,0.00,VWS V14.00,2013-06-16 04:07:00,
2013-06-16 00:12:00,73.5,65.1,31.44,South,179,3.0,4.0,75,0.00,,---,0.00,VWS V14.00,2013-06-16 04:12:00,
2013-06-16 00:17:00,73.8,65.0,31.44,South,179,0.0,4.0,74,0.00,,---,0.00,VWS V14.00,2013-06-16 04:17:00,
2013-06-16 00:22:00,73.9,65.1,31.44,South,179,0.0,4.0,74,0.00,,---,0.00,VWS V14.00,2013-06-16 04:22:00,
2013-06-16 00:27:00,73.9,65.1,31.44,South,179,0.0,4.0,74,0.00,,---,0.00,VWS V14.00,2013-06-16 04:27:00,
2013-06-16 00:32:00,73.8,65.0,31.44,South,179,0.0,4.0,74,0.00,,---,0.00,VWS V14.00,2013-06-16 04:32:00,
2013-06-16 00:37:00,73.8,64.6,31.44,South,179,0.0,1.0,73,0.00,,---,0.00,VWS V14.00,2013-06-16 04:37:00,
2013-06-16 00:43:00,73.9,64.3,31.44,South,179,0.0,3.0,72,0.00,,---,0.00,VWS V14.00,2013-06-16 04:43:00,
2013-06-16 00:48:00,73.9,64.3,31.44,South,179,0.0,3.0,72,0.00,,---,0.00,VWS V14.00,2013-06-16 04:48:00,
2013-06-16 00:53:00,73.9,64.3,31.44,South,179,0.0,3.0,72,0.00,,---,0.00,VWS V14.00,2013-06-16 04:53:00,
2013-06-16 00:58:00,73.7,64.1,31.44,South,179,0.0,3.0,72,0.00,,---,0.00,VWS V14.00,2013-06-16 04:58:00,
2013-06-16 01:03:00,73.7,64.5,31.44,South,179,0.0,3.0,73,0.00,,---,0.00,VWS V14.00,2013-06-16 05:03:00,
2013-06-16 01:08:00,73.7,64.5,31.44,South,179,0.0,1.0,73,0.00,,---,0.00,VWS V14.00,2013-06-16 05:08:00,
2013-06-16 01:13:00,73.6,64.4,31.44,South,179,0.0,1.0,73,0.00,,---,0.00,VWS V14.00,2013-06-16 05:13:00,
2013-06-16 01:18:00,73.4,63.8,31.44,South,179,0.0,1.0,72,0.00,,---,0.00,VWS V14.00,2013-06-16 05:18:00,
2013-06-16 01:23:00,73.4,64.2,31.44,South,179,0.0,1.0,73,0.00,,---,0.00,VWS V14.00,2013-06-16 05:23:00,
2013-06-16 01:28:00,73.3,63.7,31.44,South,179,0.0,1.0,72,0.00,,---,0.00,VWS V14.00,2013-06-16 05:28:00,
2013-06-16 01:33:00,73.4,63.4,31.44,South,179,0.0,1.0,71,0.00,,---,0.00,VWS V14.00,2013-06-16 05:33:00,
2013-06-16 01:38:00,73.5,63.5,31.44,South,179,0.0,0.0,71,0.00,,---,0.00,VWS V14.00,2013-06-16 05:38:00,
2013-06-16 01:43:00,73.7,63.7,31.44,South,179,0.0,0.0,71,0.00,,---,0.00,VWS V14.00,2013-06-16 05:43:00,
2013-06-16 01:48:00,73.9,64.3,31.44,South,179,0.0,0.0,72,0.00,,---,0.00,VWS V14.00,2013-06-16 05:48:00,
2013-06-16 01:53:00,73.9,64.3,31.44,South,179,2.0,3.0,72,0.00,,---,0.00,VWS V14.00,2013-06-16 05:53:00,
2013-06-16 01:58:00,73.6,63.6,31.44,South,179,0.0,3.0,71,0.00,,---,0.00,VWS V14.00,2013-06-16 05:58:00,
2013-06-16 02:03:00,73.5,64.3,31.44,South,179,0.0,3.0,73,0.00,,---,0.00,VWS V14.00,2013-06-16 06:03:00,
2013-06-16 02:08:00,73.6,62.8,31.44,WNW,282,5.0,6.0,69,0.00,,---,0.00,VWS V14.00,2013-06-16 06:08:00,
2013-06-16 02:13:00,74.7,63.0,31.44,SW,232,4.0,11.0,67,0.00,,---,0.00,VWS V14.00,2013-06-16 06:13:00,
2013-06-16 02:19:00,75.6,63.9,31.44,WNW,302,5.0,16.0,67,0.00,,---,0.00,VWS V14.00,2013-06-16 06:19:00,
2013-06-16 02:24:00,75.8,64.1,31.44,NW,306,9.0,22.0,67,0.00,,---,0.00,VWS V14.00,2013-06-16 06:24:00,
2013-06-16 02:29:00,75.3,64.4,31.44,WNW,288,9.0,22.0,69,0.00,,---,0.00,VWS V14.00,2013-06-16 06:29:00,
2013-06-16 02:34:00,74.8,64.0,31.44,WSW,251,0.0,22.0,69,0.00,,---,0.00,VWS V14.00,2013-06-16 06:34:00,
2013-06-16 02:39:00,74.5,64.1,31.44,WNW,288,4.0,15.0,70,0.00,,---,0.00,VWS V14.00,2013-06-16 06:39:00,
2013-06-16 02:44:00,74.1,64.1,31.44,WNW,296,12.0,17.0,71,0.00,,---,0.00,VWS V14.00,2013-06-16 06:44:00,
2013-06-16 02:49:00,73.7,63.7,31.44,West,273,5.0,17.0,71,0.00,,---,0.00,VWS V14.00,2013-06-16 06:49:00,
2013-06-16 02:54:00,73.4,63.8,31.44,West,271,6.0,17.0,72,0.00,,---,0.00,VWS V14.00,2013-06-16 06:54:00,
2013-06-16 02:59:00,73.1,63.5,31.44,NW,317,9.0,17.0,72,0.00,,---,0.00,VWS V14.00,2013-06-16 06:59:00,
2013-06-16 03:04:00,72.9,63.8,31.44,NNW,327,4.0,17.0,73,0.00,,---,0.00,VWS V14.00,2013-06-16 07:04:00,
2013-06-16 03:09:00,72.8,63.7,31.44,WSW,248,4.0,4.0,73,0.00,,---,0.00,VWS V14.00,2013-06-16 07:09:00,
2013-06-16 03:14:00,72.7,63.5,31.44,WSW,253,2.0,8.0,73,0.00,,---,0.00,VWS V14.00,2013-06-16 07:14:00,
2013-06-16 03:19:00,72.6,63.8,31.44,South,186,0.0,8.0,74,0.00,,---,0.00,VWS V14.00,2013-06-16 07:19:00,
2013-06-16 03:24:00,72.5,63.8,31.44,SSW,209,2.0,8.0,74,0.00,,---,0.00,VWS V14.00,2013-06-16 07:24:00,
2013-06-16 03:29:00,72.4,63.7,31.44,SSW,211,0.0,8.0,74,0.00,,---,0.00,VWS V14.00,2013-06-16 07:29:00,
2013-06-16 03:34:00,72.3,63.6,31.44,SSW,205,0.0,8.0,74,0.00,,---,0.00,VWS V14.00,2013-06-16 07:34:00,
2013-06-16 03:39:00,72.2,63.5,31.44,SSW,205,0.0,3.0,74,0.00,,---,0.00,VWS V14.00,2013-06-16 07:39:00,
2013-06-16 03:44:00,72.1,63.4,31.44,SSW,205,0.0,3.0,74,0.00,,---,0.00,VWS V14.00,2013-06-16 07:44:00,
2013-06-16 03:49:00,71.9,63.5,31.44,SSW,205,0.0,3.0,75,0.00,,---,0.00,VWS V14.00,2013-06-16 07:49:00,
2013-06-16 03:54:00,71.8,63.1,31.44,SSW,205,0.0,3.0,74,0.00,,---,0.00,VWS V14.00,2013-06-16 07:54:00,
2013-06-16 04:00:00,71.7,63.4,31.44,SSW,205,0.0,3.0,75,0.00,,---,0.00,VWS V14.00,2013-06-16 08:00:00,
2013-06-16 04:05:00,71.6,63.3,31.44,SSW,205,0.0,3.0,75,0.00,,---,0.00,VWS V14.00,2013-06-16 08:05:00,
2013-06-16 04:10:00,71.5,63.2,31.44,SSW,205,0.0,0.0,75,0.00,,---,0.00,VWS V14.00,2013-06-16 08:10:00,
2013-06-16 04:15:00,71.3,63.0,31.44,SSW,205,0.0,2.0,75,0.00,,---,0.00,VWS V14.00,2013-06-16 08:15:00,
2013-06-16 04:20:00,71.2,63.3,31.44,SSW,205,0.0,3.0,76,0.00,,---,0.00,VWS V14.00,2013-06-16 08:20:00,
2013-06-16 04:25:00,71.2,63.6,31.44,SSW,205,0.0,3.0,77,0.00,,---,0.00,VWS V14.00,2013-06-16 08:25:00,
2013-06-16 04:30:00,71.0,63.1,31.44,SSW,205,2.0,5.0,76,0.00,,---,0.00,VWS V14.00,2013-06-16 08:30:00,
2013-06-16 04:35:00,70.9,63.3,31.44,SSW,205,0.0,5.0,77,0.00,,---,0.00,VWS V14.00,2013-06-16 08:35:00,
2013-06-16 04:40:00,70.8,63.2,31.44,SSW,203,0.0,4.0,77,0.00,,---,0.00,VWS V14.00,2013-06-16 08:40:00,
2013-06-16 04:45:00,70.8,63.6,31.44,SSW,203,0.0,4.0,78,0.00,,---,0.00,VWS V14.00,2013-06-16 08:45:00,
2013-06-16 04:50:00,70.7,63.1,31.44,SSW,203,2.0,5.0,77,0.00,,---,0.00,VWS V14.00,2013-06-16 08:50:00,
2013-06-16 04:55:00,70.6,63.0,31.44,South,182,0.0,6.0,77,0.00,,---,0.00,VWS V14.00,2013-06-16 08:55:00,
2013-06-16 05:00:00,70.5,63.3,31.44,South,182,3.0,6.0,78,0.00,,---,0.00,VWS V14.00,2013-06-16 09:00:00,
2013-06-16 05:05:00,70.4,63.2,31.44,South,182,2.0,6.0,78,0.00,,---,0.00,VWS V14.00,2013-06-16 09:05:00,
2013-06-16 05:10:00,70.4,63.6,25.57,South,184,0.0,4.0,79,0.00,,---,0.00,VWS V14.00,2013-06-16 09:10:00,
2013-06-16 05:15:00,70.4,63.2,25.57,South,184,0.0,4.0,78,0.00,,---,0.00,VWS V14.00,2013-06-16 09:15:00,
2013-06-16 05:20:00,70.3,63.1,25.57,South,184,1.0,4.0,78,0.00,,---,0.00,VWS V14.00,2013-06-16 09:20:00,
2013-06-16 05:25:00,70.2,63.4,25.57,South,184,0.0,4.0,79,0.00,,---,0.00,VWS V14.00,2013-06-16 09:25:00,
2013-06-16 05:30:00,70.1,62.9,25.57,South,184,3.0,5.0,78,0.00,,---,0.00,VWS V14.00,2013-06-16 09:30:00,
2013-06-16 05:35:00,70.1,63.3,25.57,SSW,206,0.0,5.0,79,0.00,,---,0.00,VWS V14.00,2013-06-16 09:35:00,
2013-06-16 05:40:00,70.1,63.3,25.57,SSE,158,2.0,6.0,79,0.00,,---,0.00,VWS V14.00,2013-06-16 09:40:00,
2013-06-16 05:46:00,70.1,63.3,25.57,South,173,4.0,7.0,79,0.00,,---,0.00,VWS V14.00,2013-06-16 09:46:00,
2013-06-16 05:51:00,70.1,63.3,25.57,South,172,0.0,7.0,79,0.00,,---,0.00,VWS V14.00,2013-06-16 09:51:00,
2013-06-16 05:56:00,70.0,63.2,25.57,South,190,3.0,7.0,79,0.00,,---,0.00,VWS V14.00,2013-06-16 09:56:00,
2013-06-16 06:01:00,69.9,63.1,25.57,South,182,0.0,7.0,79,0.00,,---,0.00,VWS V14.00,2013-06-16 10:01:00,
2013-06-16 06:06:00,69.9,63.1,25.57,South,186,0.0,7.0,79,0.00,,---,0.00,VWS V14.00,2013-06-16 10:06:00,
2013-06-16 06:11:00,70.1,63.7,25.57,South,187,0.0,5.0,80,0.00,,---,0.00,VWS V14.00,2013-06-16 10:11:00,
2013-06-16 06:16:00,70.1,63.7,25.57,South,186,3.0,5.0,80,0.00,,---,0.00,VWS V14.00,2013-06-16 10:16:00,
2013-06-16 06:21:00,70.1,63.7,25.57,South,186,0.0,5.0,80,0.00,,---,0.00,VWS V14.00,2013-06-16 10:21:00,
2013-06-16 06:26:00,70.1,64.0,25.57,South,187,0.0,5.0,81,0.00,,---,0.00,VWS V14.00,2013-06-16 10:26:00,
2013-06-16 06:31:00,69.9,63.8,25.57,South,187,0.0,5.0,81,0.00,,---,0.00,VWS V14.00,2013-06-16 10:31:00,
2013-06-16 06:36:00,69.5,63.4,25.57,South,187,3.0,5.0,81,0.00,,---,0.00,VWS V14.00,2013-06-16 10:36:00,
2013-06-16 06:41:00,69.2,63.5,25.57,South,188,0.0,4.0,82,0.00,,---,0.00,VWS V14.00,2013-06-16 10:41:00,
2013-06-16 06:46:00,69.0,63.6,25.57,South,187,0.0,4.0,83,0.00,,---,0.00,VWS V14.00,2013-06-16 10:46:00,
2013-06-16 06:51:00,68.8,63.4,25.57,South,188,0.0,4.0,83,0.00,,---,0.00,VWS V14.00,2013-06-16 10:51:00,
2013-06-16 06:56:00,68.7,63.7,25.57,South,187,0.0,4.0,84,0.00,,---,0.00,VWS V14.00,2013-06-16 10:56:00,
2013-06-16 07:01:00,68.6,63.6,25.57,South,187,2.0,4.0,84,0.00,,---,0.00,VWS V14.00,2013-06-16 11:01:00,
2013-06-16 07:06:00,68.6,63.6,25.57,WNW,286,0.0,4.0,84,0.00,,---,0.00,VWS V14.00,2013-06-16 11:06:00,
2013-06-16 07:11:00,68.6,63.9,25.57,WNW,286,0.0,3.0,85,0.00,,---,0.00,VWS V14.00,2013-06-16 11:11:00,
2013-06-16 07:16:00,68.5,63.8,25.57,WNW,286,0.0,3.0,85,0.00,,---,0.00,VWS V14.00,2013-06-16 11:16:00,
2013-06-16 07:21:00,68.4,63.7,25.57,WNW,286,0.0,3.0,85,0.00,,---,0.00,VWS V14.00,2013-06-16 11:21:00,
2013-06-16 07:26:00,68.4,63.7,25.57,SW,225,0.0,5.0,85,0.00,,---,0.00,VWS V14.00,2013-06-16 11:26:00,
2013-06-16 07:32:00,68.6,63.9,25.57,SW,219,0.0,5.0,85,0.00,,---,0.00,VWS V14.00,2013-06-16 11:32:00,
2013-06-16 07:37:00,68.8,63.8,25.57,SSW,195,4.0,5.0,84,0.00,,---,0.00,VWS V14.00,2013-06-16 11:37:00,
2013-06-16 07:42:00,69.2,64.2,25.57,SSW,195,5.0,7.0,84,0.00,,---,0.00,VWS V14.00,2013-06-16 11:42:00,
2013-06-16 07:47:00,69.4,64.0,25.57,SSW,194,0.0,7.0,83,0.00,,---,0.00,VWS V14.00,2013-06-16 11:47:00,
2013-06-16 07:52:00,69.5,64.1,25.57,SSW,213,0.0,7.0,83,0.00,,---,0.00,VWS V14.00,2013-06-16 11:52:00,
2013-06-16 07:57:00,69.6,64.2,32.19,WSW,245,6.0,7.0,83,0.00,,---,0.00,VWS V14.00,2013-06-16 11:57:00,
2013-06-16 08:02:00,69.9,64.2,32.19,SSW,207,0.0,7.0,82,0.00,,---,0.00,VWS V14.00,2013-06-16 12:02:00,
2013-06-16 08:07:00,70.0,64.3,32.19,South,173,0.0,0.0,82,0.00,,---,0.00,VWS V14.00,2013-06-16 12:07:00,
2013-06-16 08:12:00,70.1,64.4,32.19,South,177,3.0,5.0,82,0.00,,---,0.00,VWS V14.00,2013-06-16 12:12:00,
2013-06-16 08:17:00,70.1,64.4,32.19,South,177,3.0,5.0,82,0.00,,---,0.00,VWS V14.00,2013-06-16 12:17:00,
2013-06-16 08:22:00,70.2,64.4,32.19,South,177,1.0,5.0,82,0.00,,---,0.00,VWS V14.00,2013-06-16 12:22:00,
2013-06-16 08:27:00,70.1,64.4,32.19,South,177,0.0,5.0,82,0.00,,---,0.00,VWS V14.00,2013-06-16 12:27:00,
2013-06-16 08:32:00,70.1,64.4,32.19,South,177,0.0,5.0,82,0.00,,---,0.00,VWS V14.00,2013-06-16 12:32:00,
2013-06-16 08:37:00,70.2,64.4,32.19,South,176,0.0,0.0,82,0.00,,---,0.00,VWS V14.00,2013-06-16 12:37:00,
2013-06-16 08:42:00,70.2,64.4,32.19,South,177,0.0,4.0,82,0.00,,---,0.00,VWS V14.00,2013-06-16 12:42:00,
2013-06-16 08:47:00,70.3,64.6,32.19,South,176,0.0,4.0,82,0.00,,---,0.00,VWS V14.00,2013-06-16 12:47:00,
2013-06-16 08:52:00,70.4,64.7,32.19,South,177,0.0,4.0,82,0.00,,---,0.00,VWS V14.00,2013-06-16 12:52:00,
2013-06-16 08:57:00,70.5,64.8,32.19,South,176,3.0,4.0,82,0.00,,---,0.00,VWS V14.00,2013-06-16 12:57:00,
2013-06-16 09:02:00,70.6,64.8,32.19,South,177,0.0,4.0,82,0.00,,---,0.00,VWS V14.00,2013-06-16 13:02:00,
2013-06-16 09:07:00,70.6,64.5,32.19,South,179,2.0,4.0,81,0.00,,---,0.00,VWS V14.00,2013-06-16 13:07:00,
2013-06-16 09:12:00,70.8,64.7,32.19,South,172,5.0,6.0,81,0.00,,---,0.00,VWS V14.00,2013-06-16 13:12:00,
2013-06-16 09:18:00,70.9,64.8,29.14,SSE,161,3.0,6.0,81,0.00,,---,0.00,VWS V14.00,2013-06-16 13:18:00,
2013-06-16 09:23:00,71.2,65.4,29.14,South,180,0.0,6.0,82,0.00,,---,0.00,VWS V14.00,2013-06-16 13:23:00,
2013-06-16 09:28:00,71.2,65.1,29.14,South,185,2.0,6.0,81,0.00,,---,0.00,VWS V14.00,2013-06-16 13:28:00,
2013-06-16 09:33:00,71.3,65.5,29.14,South,184,3.0,6.0,82,0.00,,---,0.00,VWS V14.00,2013-06-16 13:33:00,
2013-06-16 09:38:00,71.3,65.5,29.14,South,184,0.0,0.0,82,0.00,,---,0.00,VWS V14.00,2013-06-16 13:38:00,
2013-06-16 09:43:00,71.3,65.2,29.14,South,184,0.0,3.0,81,0.00,,---,0.00,VWS V14.00,2013-06-16 13:43:00,
2013-06-16 09:48:00,71.6,65.8,29.14,South,179,4.0,5.0,82,0.00,,---,0.00,VWS V14.00,2013-06-16 13:48:00,
2013-06-16 09:53:00,71.9,65.8,29.14,SSE,164,4.0,7.0,81,0.00,,---,0.00,VWS V14.00,2013-06-16 13:53:00,
2013-06-16 09:58:00,72.2,65.7,29.14,SSE,165,4.0,7.0,80,0.00,,---,0.00,VWS V14.00,2013-06-16 13:58:00,
2013-06-16 10:03:00,72.3,65.8,29.14,SSE,165,0.0,7.0,80,0.00,,---,0.00,VWS V14.00,2013-06-16 14:03:00,
2013-06-16 10:08:00,72.5,65.6,29.14,South,173,5.0,5.0,79,0.00,,---,0.00,VWS V14.00,2013-06-16 14:08:00,
2013-06-16 10:13:00,72.8,65.9,29.14,South,169,3.0,6.0,79,0.00,,---,0.00,VWS V14.00,2013-06-16 14:13:00,
2013-06-16 10:18:00,72.8,65.6,29.14,South,173,4.0,7.0,78,0.00,,---,0.00,VWS V14.00,2013-06-16 14:18:00,
2013-06-16 10:23:00,72.9,65.7,29.14,SSE,161,3.0,7.0,78,0.00,,---,0.00,VWS V14.00,2013-06-16 14:23:00,
2013-06-16 10:28:00,73.0,66.1,29.14,SSE,164,1.0,7.0,79,0.00,,---,0.00,VWS V14.00,2013-06-16 14:28:00,
2013-06-16 10:33:00,73.0,66.1,29.14,SSE,164,0.0,7.0,79,0.00,,---,0.00,VWS V14.00,2013-06-16 14:33:00,
2013-06-16 10:38:00,72.9,66.0,29.14,SSE,164,1.0,1.0,79,0.00,,---,0.00,VWS V14.00,2013-06-16 14:38:00,
2013-06-16 10:43:00,72.8,66.3,29.14,SSE,164,0.0,2.0,80,0.00,,---,0.00,VWS V14.00,2013-06-16 14:43:00,
2013-06-16 10:48:00,72.7,66.5,29.14,West,266,1.0,3.0,81,0.00,,---,0.00,VWS V14.00,2013-06-16 14:48:00,
2013-06-16 10:54:00,72.4,66.2,29.14,West,273,0.0,4.0,81,0.00,,---,0.00,VWS V14.00,2013-06-16 14:54:00,
2013-06-16 10:59:00,72.3,66.5,29.14,West,274,0.0,4.0,82,0.00,,---,0.01,VWS V14.00,2013-06-16 14:59:00,
2013-06-16 11:04:00,72.3,66.5,29.14,West,274,0.0,4.0,82,0.00,,---,0.01,VWS V14.00,2013-06-16 15:04:00,
2013-06-16 11:09:00,72.3,66.5,29.14,West,274,2.0,4.0,82,0.05,,---,0.02,VWS V14.00,2013-06-16 15:09:00,
2013-06-16 11:14:00,72.1,66.7,29.14,West,274,0.0,4.0,83,0.14,,---,0.03,VWS V14.00,2013-06-16 15:14:00,
2013-06-16 11:19:00,71.7,65.9,29.14,WSW,243,2.0,4.0,82,0.15,,---,0.04,VWS V14.00,2013-06-16 15:19:00,
2013-06-16 11:24:00,71.3,65.9,29.14,South,178,5.0,5.0,83,0.07,,---,0.04,VWS V14.00,2013-06-16 15:24:00,
2013-06-16 11:29:00,71.1,65.7,29.14,SSW,195,2.0,6.0,83,0.04,,---,0.04,VWS V14.00,2013-06-16 15:29:00,
2013-06-16 11:34:00,71.3,66.2,29.14,South,173,0.0,6.0,84,0.00,,---,0.04,VWS V14.00,2013-06-16 15:34:00,
2013-06-16 11:39:00,71.1,66.0,29.14,South,174,0.0,0.0,84,0.00,,---,0.04,VWS V14.00,2013-06-16 15:39:00,
2013-06-16 11:44:00,71.2,66.5,29.14,South,173,0.0,0.0,85,0.00,,---,0.04,VWS V14.00,2013-06-16 15:44:00,
2013-06-16 11:49:00,71.3,66.6,29.14,South,174,0.0,1.0,85,0.00,,---,0.04,VWS V14.00,2013-06-16 15:49:00,
2013-06-16 11:54:00,71.3,66.6,29.14,South,174,0.0,1.0,85,0.00,,---,0.04,VWS V14.00,2013-06-16 15:54:00,
2013-06-16 11:59:00,71.3,66.6,29.14,South,174,3.0,4.0,85,0.00,,---,0.04,VWS V14.00,2013-06-16 15:59:00,
2013-06-16 12:04:00,71.4,66.3,29.14,South,174,0.0,4.0,84,0.00,,---,0.04,VWS V14.00,2013-06-16 16:04:00,
2013-06-16 12:09:00,71.6,65.8,29.14,South,174,3.0,5.0,82,0.00,,---,0.04,VWS V14.00,2013-06-16 16:09:00,
2013-06-16 12:14:00,71.9,66.5,29.14,South,169,5.0,6.0,83,0.00,,---,0.04,VWS V14.00,2013-06-16 16:14:00,
2013-06-16 12:19:00,72.1,66.7,29.14,South,178,5.0,7.0,83,0.00,,---,0.04,VWS V14.00,2013-06-16 16:19:00,
2013-06-16 12:24:00,72.3,66.8,32.16,South,178,0.0,7.0,83,0.00,,---,0.04,VWS V14.00,2013-06-16 16:24:00,
2013-06-16 12:30:00,72.1,66.3,32.16,South,169,3.0,7.0,82,0.00,,---,0.04,VWS V14.00,2013-06-16 16:30:00,
2013-06-16 12:35:00,72.1,66.7,32.16,South,182,2.0,7.0,83,0.00,,---,0.04,VWS V14.00,2013-06-16 16:35:00,
2013-06-16 12:40:00,72.2,66.8,32.16,SSW,195,4.0,7.0,83,0.00,,---,0.04,VWS V14.00,2013-06-16 16:40:00,
2013-06-16 12:45:00,72.4,66.9,32.16,SSW,195,0.0,7.0,83,0.00,,---,0.04,VWS V14.00,2013-06-16 16:45:00,
2013-06-16 12:50:00,72.4,66.9,24.68,SW,229,0.0,7.0,83,0.00,,---,0.04,VWS V14.00,2013-06-16 16:50:00,
2013-06-16 12:55:00,72.4,66.9,24.68,SSW,209,2.0,7.0,83,0.00,,---,0.04,VWS V14.00,2013-06-16 16:55:00,
2013-06-16 13:00:00,72.4,66.9,24.68,WNW,286,0.0,7.0,83,0.00,,---,0.04,VWS V14.00,2013-06-16 17:00:00,
2013-06-16 13:05:00,72.3,66.8,24.68,SW,232,0.0,7.0,83,0.00,,---,0.04,VWS V14.00,2013-06-16 17:05:00,
2013-06-16 13:10:00,72.2,66.8,24.68,WSW,258,1.0,3.0,83,0.00,,---,0.04,VWS V14.00,2013-06-16 17:10:00,
2013-06-16 13:15:00,72.1,67.0,24.68,WSW,250,3.0,4.0,84,0.00,,---,0.04,VWS V14.00,2013-06-16 17:15:00,
2013-06-16 13:20:00,72.0,66.9,24.68,West,267,2.0,5.0,84,0.00,,---,0.04,VWS V14.00,2013-06-16 17:20:00,
2013-06-16 13:25:00,71.9,66.8,24.68,SW,219,6.0,6.0,84,0.00,,---,0.04,VWS V14.00,2013-06-16 17:25:00,
2013-06-16 13:30:00,71.5,66.4,24.68,WNW,288,6.0,7.0,84,0.00,,---,0.04,VWS V14.00,2013-06-16 17:30:00,
2013-06-16 13:35:00,71.3,66.6,24.68,West,275,0.0,7.0,85,0.20,,---,0.06,VWS V14.00,2013-06-16 17:35:00,
2013-06-16 13:41:00,71.1,66.4,24.68,West,261,3.0,7.0,85,0.18,,---,0.07,VWS V14.00,2013-06-16 17:41:00,
2013-06-16 13:46:00,70.7,66.3,24.68,West,281,0.0,7.0,86,0.17,,---,0.09,VWS V14.00,2013-06-16 17:46:00,
2013-06-16 13:51:00,70.3,65.9,24.68,NW,313,0.0,8.0,86,0.21,,---,0.10,VWS V14.00,2013-06-16 17:51:00,
2013-06-16 13:56:00,70.1,66.1,24.68,West,278,3.0,9.0,87,0.23,,---,0.12,VWS V14.00,2013-06-16 17:56:00,
2013-06-16 14:01:00,69.8,65.8,24.68,WNW,284,4.0,9.0,87,0.22,,---,0.14,VWS V14.00,2013-06-16 18:01:00,
2013-06-16 14:06:00,69.6,65.6,24.68,WNW,294,0.0,9.0,87,0.15,,---,0.15,VWS V14.00,2013-06-16 18:06:00,
2013-06-16 14:11:00,69.5,65.5,24.68,WNW,286,2.0,5.0,87,0.16,,---,0.16,VWS V14.00,2013-06-16 18:11:00,
2013-06-16 14:16:00,69.4,65.4,24.68,WNW,286,1.0,6.0,87,0.19,,---,0.18,VWS V14.00,2013-06-16 18:16:00,
2013-06-16 14:21:00,69.4,65.7,24.68,WNW,300,0.0,6.0,88,0.14,,---,0.18,VWS V14.00,2013-06-16 18:21:00,
2013-06-16 14:26:00,69.4,65.7,24.68,SW,232,0.0,6.0,88,0.15,,---,0.19,VWS V14.00,2013-06-16 18:26:00,
2013-06-16 14:31:00,69.3,65.6,24.68,SSW,199,0.0,7.0,88,0.11,,---,0.20,VWS V14.00,2013-06-16 18:31:00,
2013-06-16 14:36:00,69.4,65.7,24.68,SSW,198,0.0,7.0,88,0.11,,---,0.21,VWS V14.00,2013-06-16 18:36:00,
2013-06-16 14:41:00,69.2,65.5,24.68,SSW,196,4.0,5.0,88,0.10,,---,0.22,VWS V14.00,2013-06-16 18:41:00,
2013-06-16 14:46:00,69.2,65.8,24.68,SSW,198,0.0,5.0,89,0.13,,---,0.23,VWS V14.00,2013-06-16 18:46:00,
2013-06-16 14:51:00,69.2,65.8,24.68,SSW,198,0.0,5.0,89,0.11,,---,0.24,VWS V14.00,2013-06-16 18:51:00,
2013-06-16 14:56:00,69.3,65.9,24.68,SSW,198,0.0,5.0,89,0.13,,---,0.25,VWS V14.00,2013-06-16 18:56:00,
2013-06-16 15:01:00,69.3,65.9,24.68,West,276,2.0,5.0,89,0.11,,---,0.26,VWS V14.00,2013-06-16 19:01:00,
2013-06-16 15:06:00,69.2,65.8,24.68,SSE,158,1.0,5.0,89,0.13,,---,0.27,VWS V14.00,2013-06-16 19:06:00,
2013-06-16 15:11:00,69.0,65.6,24.68,South,182,3.0,10.0,89,0.12,,---,0.28,VWS V14.00,2013-06-16 19:11:00,
2013-06-16 15:16:00,69.1,65.7,24.68,SSW,192,7.0,10.0,89,0.13,,---,0.29,VWS V14.00,2013-06-16 19:16:00,
2013-06-16 15:22:00,69.1,65.7,24.68,South,186,3.0,10.0,89,0.10,,---,0.30,VWS V14.00,2013-06-16 19:22:00,
2013-06-16 15:27:00,69.1,65.7,24.68,SSE,165,5.0,10.0,89,0.10,,---,0.30,VWS V14.00,2013-06-16 19:27:00,
2013-06-16 15:32:00,69.1,65.7,24.68,SSE,154,4.0,10.0,89,0.09,,---,0.31,VWS V14.00,2013-06-16 19:32:00,
2013-06-16 15:37:00,69.2,65.8,24.68,SSE,160,3.0,3.0,89,0.07,,---,0.31,VWS V14.00,2013-06-16 19:37:00,
2013-06-16 15:42:00,69.4,66.0,24.68,SSE,159,2.0,5.0,89,0.04,,---,0.31,VWS V14.00,2013-06-16 19:42:00,
2013-06-16 15:47:00,69.6,66.2,24.68,SSE,160,0.0,5.0,89,0.00,,---,0.31,VWS V14.00,2013-06-16 19:47:00,
2013-06-16 15:52:00,69.6,66.2,24.68,SSE,159,0.0,5.0,89,0.00,,---,0.31,VWS V14.00,2013-06-16 19:52:00,
2013-06-16 15:57:00,69.7,66.3,24.68,SSE,160,2.0,5.0,89,0.00,,---,0.31,VWS V14.00,2013-06-16 19:57:00,
2013-06-16 16:02:00,69.8,66.4,24.68,SSE,160,1.0,5.0,89,0.00,,---,0.31,VWS V14.00,2013-06-16 20:02:00,
2013-06-16 16:07:00,70.0,66.6,24.68,SSE,160,3.0,5.0,89,0.00,,---,0.31,VWS V14.00,2013-06-16 20:07:00,
2013-06-16 16:12:00,70.0,66.6,24.68,SSE,160,4.0,5.0,89,0.00,,---,0.31,VWS V14.00,2013-06-16 20:12:00,
2013-06-16 16:17:00,69.8,66.1,24.68,SSE,160,1.0,5.0,88,0.00,,---,0.31,VWS V14.00,2013-06-16 20:17:00,
2013-06-16 16:22:00,70.0,66.6,24.68,SSE,160,1.0,5.0,89,0.00,,---,0.31,VWS V14.00,2013-06-16 20:22:00,
2013-06-16 16:27:00,70.0,66.6,24.68,SSE,160,1.0,5.0,89,0.00,,---,0.31,VWS V14.00,2013-06-16 20:27:00,
2013-06-16 16:32:00,69.9,66.2,24.68,SSE,160,1.0,5.0,88,0.00,,---,0.31,VWS V14.00,2013-06-16 20:32:00,
2013-06-16 16:37:00,70.1,66.7,24.68,SSE,160,1.0,1.0,89,0.00,,---,0.31,VWS V14.00,2013-06-16 20:37:00,
2013-06-16 16:42:00,70.2,66.8,24.68,SSE,160,1.0,3.0,89,0.00,,---,0.31,VWS V14.00,2013-06-16 20:42:00,
2013-06-16 16:47:00,70.1,66.7,24.68,SSE,160,0.0,3.0,89,0.00,,---,0.31,VWS V14.00,2013-06-16 20:47:00,
2013-06-16 16:52:00,70.2,66.8,24.68,SSE,160,0.0,3.0,89,0.00,,---,0.31,VWS V14.00,2013-06-16 20:52:00,
2013-06-16 16:58:00,70.4,67.0,24.68,SSE,160,0.0,3.0,89,0.00,,---,0.31,VWS V14.00,2013-06-16 20:58:00,
2013-06-16 17:03:00,70.5,66.8,24.68,SSE,160,0.0,3.0,88,0.00,,---,0.31,VWS V14.00,2013-06-16 21:03:00,
2013-06-16 17:08:00,70.7,67.0,24.68,SSE,160,2.0,3.0,88,0.00,,---,0.31,VWS V14.00,2013-06-16 21:08:00,
2013-06-16 17:13:00,70.8,67.1,24.68,SSE,160,3.0,5.0,88,0.00,,---,0.31,VWS V14.00,2013-06-16 21:13:00,
2013-06-16 17:18:00,70.8,66.7,24.68,SE,132,3.0,5.0,87,0.00,,---,0.31,VWS V14.00,2013-06-16 21:18:00,
2013-06-16 17:23:00,70.9,66.8,24.68,SE,132,0.0,5.0,87,0.00,,---,0.31,VWS V14.00,2013-06-16 21:23:00,
2013-06-16 17:28:00,70.9,66.8,24.68,SE,128,2.0,5.0,87,0.00,,---,0.31,VWS V14.00,2013-06-16 21:28:00,
2013-06-16 17:33:00,70.9,66.8,24.68,SE,128,0.0,5.0,87,0.00,,---,0.31,VWS V14.00,2013-06-16 21:33:00,
2013-06-16 17:38:00,70.9,66.8,24.68,SE,128,0.0,2.0,87,0.00,,---,0.31,VWS V14.00,2013-06-16 21:38:00,
2013-06-16 17:43:00,70.9,66.5,24.68,SE,128,2.0,4.0,86,0.00,,---,0.31,VWS V14.00,2013-06-16 21:43:00,
2013-06-16 17:48:00,71.0,66.6,24.68,SE,128,4.0,4.0,86,0.00,,---,0.31,VWS V14.00,2013-06-16 21:48:00,
2013-06-16 17:53:00,71.1,66.7,24.68,SE,128,0.0,4.0,86,0.00,,---,0.31,VWS V14.00,2013-06-16 21:53:00,
2013-06-16 17:58:00,71.2,66.8,24.68,SE,128,0.0,4.0,86,0.00,,---,0.31,VWS V14.00,2013-06-16 21:58:00,
2013-06-16 18:04:00,71.3,66.9,24.68,SE,132,0.0,4.0,86,0.00,,---,0.31,VWS V14.00,2013-06-16 22:04:00,
2013-06-16 18:09:00,71.4,67.0,24.68,SE,132,0.0,2.0,86,0.00,,---,0.31,VWS V14.00,2013-06-16 22:09:00,
2013-06-16 18:14:00,71.6,67.2,24.68,SE,132,3.0,3.0,86,0.00,,---,0.31,VWS V14.00,2013-06-16 22:14:00,
2013-06-16 18:19:00,71.6,66.9,24.68,SE,132,0.0,4.0,85,0.00,,---,0.31,VWS V14.00,2013-06-16 22:19:00,
2013-06-16 18:24:00,71.7,66.9,24.68,SE,132,2.0,4.0,85,0.00,,---,0.31,VWS V14.00,2013-06-16 22:24:00,
2013-06-16 18:29:00,71.9,67.2,24.68,SE,132,1.0,4.0,85,0.00,,---,0.31,VWS V14.00,2013-06-16 22:29:00,
2013-06-16 18:34:00,72.0,67.2,24.68,SE,132,3.0,4.0,85,0.00,,---,0.31,VWS V14.00,2013-06-16 22:34:00,
2013-06-16 18:39:00,72.1,67.3,24.68,SSE,168,4.0,4.0,85,0.00,,---,0.31,VWS V14.00,2013-06-16 22:39:00,
2013-06-16 18:44:00,72.2,67.4,24.68,SSE,168,3.0,5.0,85,0.00,,---,0.31,VWS V14.00,2013-06-16 22:44:00,
2013-06-16 18:49:00,72.2,67.4,24.68,SSE,168,0.0,5.0,85,0.00,,---,0.31,VWS V14.00,2013-06-16 22:49:00,
2013-06-16 18:54:00,72.3,67.9,24.68,South,169,1.0,5.0,86,0.00,,---,0.31,VWS V14.00,2013-06-16 22:54:00,
2013-06-16 19:00:00,72.4,67.6,24.68,South,169,2.0,5.0,85,0.00,,---,0.31,VWS V14.00,2013-06-16 23:00:00,
2013-06-16 19:05:00,72.5,67.7,24.68,South,169,0.0,5.0,85,0.00,,---,0.31,VWS V14.00,2013-06-16 23:05:00,
2013-06-16 19:10:00,72.5,67.7,24.68,South,169,0.0,1.0,85,0.00,,---,0.31,VWS V14.00,2013-06-16 23:10:00,
2013-06-16 19:15:00,72.5,68.1,24.68,SSE,168,0.0,1.0,86,0.00,,---,0.31,VWS V14.00,2013-06-16 23:15:00,
2013-06-16 19:20:00,72.5,68.1,24.68,South,169,0.0,2.0,86,0.00,,---,0.31,VWS V14.00,2013-06-16 23:20:00,
2013-06-16 19:25:00,72.3,67.9,24.68,SSE,168,0.0,2.0,86,0.00,,---,0.31,VWS V14.00,2013-06-16 23:25:00,
2013-06-16 19:30:00,72.2,67.8,24.68,South,169,0.0,2.0,86,0.00,,---,0.31,VWS V14.00,2013-06-16 23:30:00,
2013-06-16 19:35:00,72.2,68.1,24.68,SSE,168,0.0,2.0,87,0.00,,---,0.31,VWS V14.00,2013-06-16 23:35:00,
2013-06-16 19:40:00,72.3,68.2,24.68,South,169,0.0,1.0,87,0.00,,---,0.31,VWS V14.00,2013-06-16 23:40:00,
2013-06-16 19:45:00,72.7,68.9,24.68,South,169,0.0,1.0,88,0.00,,---,0.31,VWS V14.00,2013-06-16 23:45:00,
2013-06-16 19:50:00,73.0,68.9,24.68,South,169,0.0,1.0,87,0.00,,---,0.31,VWS V14.00,2013-06-16 23:50:00,
2013-06-16 19:55:00,73.6,69.2,24.68,South,169,0.0,1.0,86,0.00,,---,0.31,VWS V14.00,2013-06-16 23:55:00,
2013-06-16 20:00:00,73.8,69.0,31.08,SSE,168,0.0,2.0,85,0.00,,---,0.31,VWS V14.00,2013-06-17 00:00:00,
2013-06-16 20:06:00,74.0,68.9,31.08,South,169,0.0,2.0,84,0.00,,---,0.31,VWS V14.00,2013-06-17 00:06:00,
2013-06-16 20:11:00,74.1,68.6,31.08,SSE,168,0.0,1.0,83,0.00,,---,0.31,VWS V14.00,2013-06-17 00:11:00,
2013-06-16 20:16:00,74.0,68.9,31.08,SSE,168,0.0,3.0,84,0.00,,---,0.31,VWS V14.00,2013-06-17 00:16:00,
2013-06-16 20:21:00,73.9,68.8,27.10,SSE,168,0.0,3.0,84,0.00,,---,0.31,VWS V14.00,2013-06-17 00:21:00,
2013-06-16 20:26:00,73.8,69.0,27.10,SSE,168,0.0,3.0,85,0.00,,---,0.31,VWS V14.00,2013-06-17 00:26:00,
2013-06-16 20:31:00,73.5,68.7,27.10,South,169,0.0,3.0,85,0.00,,---,0.31,VWS V14.00,2013-06-17 00:31:00,
2013-06-16 20:36:00,73.1,68.3,27.10,SSE,168,1.0,3.0,85,0.00,,---,0.31,VWS V14.00,2013-06-17 00:36:00,
2013-06-16 20:41:00,72.7,68.3,27.10,South,169,0.0,2.0,86,0.00,,---,0.31,VWS V14.00,2013-06-17 00:41:00,
2013-06-16 20:46:00,72.4,68.3,27.10,SSE,168,0.0,2.0,87,0.00,,---,0.31,VWS V14.00,2013-06-17 00:46:00,
2013-06-16 20:51:00,72.1,68.0,27.10,South,169,0.0,2.0,87,0.00,,---,0.31,VWS V14.00,2013-06-17 00:51:00,
2013-06-16 20:56:00,71.9,67.8,27.10,SSE,168,0.0,2.0,87,0.00,,---,0.31,VWS V14.00,2013-06-17 00:56:00,
2013-06-16 21:01:00,71.7,68.0,27.10,South,169,0.0,2.0,88,0.00,,---,0.31,VWS V14.00,2013-06-17 01:01:00,
2013-06-16 21:06:00,71.6,67.9,27.10,South,173,2.0,4.0,88,0.00,,---,0.31,VWS V14.00,2013-06-17 01:06:00,
2013-06-16 21:11:00,71.6,67.9,27.10,South,184,2.0,4.0,88,0.00,,---,0.31,VWS V14.00,2013-06-17 01:11:00,
2013-06-16 21:16:00,71.5,67.8,27.10,SW,217,0.0,4.0,88,0.00,,---,0.31,VWS V14.00,2013-06-17 01:16:00,
2013-06-16 21:21:00,71.3,67.6,27.10,SW,217,0.0,4.0,88,0.00,,---,0.31,VWS V14.00,2013-06-17 01:21:00,
2013-06-16 21:26:00,71.3,67.9,27.10,SW,217,0.0,4.0,89,0.00,,---,0.31,VWS V14.00,2013-06-17 01:26:00,
2013-06-16 21:32:00,71.1,67.7,27.10,SW,217,0.0,4.0,89,0.00,,---,0.31,VWS V14.00,2013-06-17 01:32:00,
2013-06-16 21:37:00,70.9,67.5,27.10,SW,217,0.0,4.0,89,0.00,,---,0.31,VWS V14.00,2013-06-17 01:37:00,
2013-06-16 21:42:00,70.6,67.2,27.10,SW,217,0.0,1.0,89,0.00,,---,0.31,VWS V14.00,2013-06-17 01:42:00,
2013-06-16 21:47:00,70.5,67.1,27.10,SW,217,0.0,1.0,89,0.00,,---,0.31,VWS V14.00,2013-06-17 01:47:00,
2013-06-16 21:52:00,70.4,67.3,27.10,SW,217,0.0,1.0,90,0.00,,---,0.31,VWS V14.00,2013-06-17 01:52:00,
2013-06-16 21:57:00,70.4,67.3,27.10,SW,217,0.0,1.0,90,0.00,,---,0.31,VWS V14.00,2013-06-17 01:57:00,
2013-06-16 22:02:00,70.4,67.3,27.10,SW,217,0.0,3.0,90,0.00,,---,0.31,VWS V14.00,2013-06-17 02:02:00,
2013-06-16 22:07:00,70.4,67.3,28.97,SW,217,0.0,0.0,90,0.00,,---,0.31,VWS V14.00,2013-06-17 02:07:00,
2013-06-16 22:12:00,70.3,67.2,28.97,SW,217,2.0,3.0,90,0.00,,---,0.31,VWS V14.00,2013-06-17 02:12:00,
2013-06-16 22:17:00,70.2,67.1,28.97,SW,217,2.0,4.0,90,0.00,,---,0.31,VWS V14.00,2013-06-17 02:17:00,
2013-06-16 22:22:00,70.1,67.0,28.97,SW,217,0.0,4.0,90,0.00,,---,0.31,VWS V14.00,2013-06-17 02:22:00,
2013-06-16 22:27:00,70.1,67.0,28.97,SW,217,1.0,4.0,90,0.00,,---,0.31,VWS V14.00,2013-06-17 02:27:00,
2013-06-16 22:32:00,69.9,66.8,28.97,SW,217,1.0,4.0,90,0.00,,---,0.31,VWS V14.00,2013-06-17 02:32:00,
2013-06-16 22:37:00,69.9,66.8,28.97,SW,217,0.0,0.0,90,0.00,,---,0.31,VWS V14.00,2013-06-17 02:37:00,
2013-06-16 22:43:00,70.0,66.9,28.97,SW,217,0.0,1.0,90,0.00,,---,0.31,VWS V14.00,2013-06-17 02:43:00,
2013-06-16 22:48:00,70.0,66.9,28.97,SW,217,0.0,1.0,90,0.00,,---,0.31,VWS V14.00,2013-06-17 02:48:00,
2013-06-16 22:53:00,69.9,66.8,28.97,SW,217,0.0,2.0,90,0.00,,---,0.31,VWS V14.00,2013-06-17 02:53:00,
2013-06-16 22:58:00,70.0,66.9,28.97,SW,217,0.0,2.0,90,0.00,,---,0.31,VWS V14.00,2013-06-17 02:58:00,
2013-06-16 23:03:00,70.3,67.6,28.97,SW,217,0.0,2.0,91,0.00,,---,0.31,VWS V14.00,2013-06-17 03:03:00,
2013-06-16 23:08:00,70.3,67.6,28.97,SW,217,0.0,0.0,91,0.00,,---,0.31,VWS V14.00,2013-06-17 03:08:00,
2013-06-16 23:13:00,70.3,67.6,28.97,SW,217,0.0,0.0,91,0.00,,---,0.31,VWS V14.00,2013-06-17 03:13:00,
2013-06-16 23:18:00,70.3,67.6,28.97,SW,217,0.0,0.0,91,0.00,,---,0.31,VWS V14.00,2013-06-17 03:18:00,
2013-06-16 23:23:00,70.2,67.4,28.97,SW,217,0.0,0.0,91,0.00,,---,0.31,VWS V14.00,2013-06-17 03:23:00,
2013-06-16 23:28:00,69.9,67.2,28.97,SW,217,0.0,0.0,91,0.00,,---,0.31,VWS V14.00,2013-06-17 03:28:00,
2013-06-16 23:34:00,70.1,67.4,28.97,SW,217,0.0,0.0,91,0.00,,---,0.31,VWS V14.00,2013-06-17 03:34:00,
2013-06-16 23:39:00,70.0,67.3,28.97,SW,217,0.0,0.0,91,0.00,,---,0.31,VWS V14.00,2013-06-17 03:39:00,
2013-06-16 23:44:00,70.0,67.3,28.97,SW,217,0.0,0.0,91,0.00,,---,0.31,VWS V14.00,2013-06-17 03:44:00,
2013-06-16 23:49:00,69.8,67.1,28.97,SW,217,0.0,3.0,91,0.00,,---,0.31,VWS V14.00,2013-06-17 03:49:00,
2013-06-16 23:54:00,69.8,67.1,28.97,SW,217,0.0,3.0,91,0.00,,---,0.31,VWS V14.00,2013-06-17 03:54:00,
2013-06-16 23:59:00,69.8,67.1,28.97,SW,217,0.0,3.0,91,0.00,,---,0.31,VWS V14.00,2013-06-17 03:59:00,